Location: Cedar Brake
(32.2526°N, 97.8459°W)
Time: 16:42:09
(UTC+00:00)

CZ-4B R/B - Pass Details

Date: 22 April 2026
Orbit: 462 x 561 km, 97.8° (Epoch: 9 May)

Event Time Altitude Azimuth Distance (km) Brightness Sun altitude
Exits shadow 02:06:16 20° 131° (SE) 1,205 5.0 -13.0°
Maximum altitude 02:08:20 38° 74° (ENE) 790 4.2 -13.4°
Drops below altitude 10° 02:11:52 10° 5° (N) 1,763 6.6 -14.1°
Sets 02:14:06 0° 358° (N) 2,673 7.7 -14.5°
